Time,TemperatureF,DewpointF,PressureIn,WindDirection,WindDirectionDegrees,WindSpeedMPH,WindSpeedGustMPH,Humidity,HourlyPrecipIn,Conditions,Clouds,dailyrainin,SolarRadiationWatts/m^2,SoftwareType,DateUTC
2013-11-29 00:00:00,25.0,25.0,-100.00,North,0,6.0,-999.0,98,-99.99,,,-99.99,0.000000,,2013-11-29 06:00:00,
2013-11-29 00:42:00,25.0,25.0,-100.00,North,0,6.0,-999.0,98,-99.99,,,-99.99,0.000000,,2013-11-29 06:42:00,
2013-11-29 00:52:00,25.0,25.0,-100.00,North,0,6.0,-999.0,98,-99.99,,,-99.99,0.000000,,2013-11-29 06:52:00,
2013-11-29 03:00:00,24.0,22.0,-100.00,North,0,6.0,-999.0,94,-99.99,,,-99.99,0.000000,,2013-11-29 09:00:00,
2013-11-29 03:43:00,24.0,22.0,-100.00,North,0,6.0,-999.0,94,-99.99,,,-99.99,0.000000,,2013-11-29 09:43:00,
2013-11-29 03:53:00,24.0,22.0,-100.00,North,0,6.0,-999.0,94,-99.99,,,-99.99,0.000000,,2013-11-29 09:53:00,
2013-11-29 09:00:00,18.0,17.0,-100.00,WNW,292,2.0,-999.0,97,-99.99,,,-99.99,135.720001,,2013-11-29 15:00:00,
2013-11-29 09:43:00,18.0,17.0,-100.00,WNW,292,2.0,-999.0,97,-99.99,,,-99.99,135.720001,,2013-11-29 15:43:00,
2013-11-29 09:53:00,18.0,17.0,-100.00,WNW,292,2.0,-999.0,97,-99.99,,,-99.99,135.720001,,2013-11-29 15:53:00,
2013-11-29 12:00:00,27.0,19.0,-100.00,West,270,5.0,-999.0,71,-99.99,,,-99.99,263.320007,,2013-11-29 18:00:00,
2013-11-29 12:42:00,27.0,19.0,-100.00,West,270,5.0,-999.0,71,-99.99,,,-99.99,263.320007,,2013-11-29 18:42:00,
2013-11-29 12:52:00,27.0,19.0,-100.00,West,270,5.0,-999.0,71,-99.99,,,-99.99,263.320007,,2013-11-29 18:52:00,
2013-11-29 15:00:00,28.0,18.0,-100.00,SW,225,5.0,-999.0,67,-99.99,,,-99.99,92.800003,,2013-11-29 21:00:00,
2013-11-29 15:43:00,28.0,18.0,-100.00,SW,225,5.0,-999.0,67,-99.99,,,-99.99,92.800003,,2013-11-29 21:43:00,
2013-11-29 15:53:00,28.0,18.0,-100.00,SW,225,5.0,-999.0,67,-99.99,,,-99.99,92.800003,,2013-11-29 21:53:00,
2013-11-29 18:00:00,25.0,20.0,-100.00,SSE,157,1.0,-999.0,78,-99.99,,,-99.99,0.000000,,2013-11-30 00:00:00,
2013-11-29 18:42:00,25.0,20.0,-100.00,SSE,157,1.0,-999.0,78,-99.99,,,-99.99,0.000000,,2013-11-30 00:42:00,
2013-11-29 18:52:00,25.0,20.0,-100.00,SSE,157,1.0,-999.0,78,-99.99,,,-99.99,0.000000,,2013-11-30 00:52:00,
2013-11-29 21:00:00,29.0,23.0,-100.00,South,180,5.0,-999.0,78,-99.99,,,-99.99,0.000000,,2013-11-30 03:00:00,
2013-11-29 21:43:00,29.0,23.0,-100.00,South,180,5.0,-999.0,78,-99.99,,,-99.99,0.000000,,2013-11-30 03:43:00,
2013-11-29 21:54:00,29.0,23.0,-100.00,South,180,5.0,-999.0,78,-99.99,,,-99.99,0.000000,,2013-11-30 03:54:00,